Weather History for Stanton, MN

Change the Weather History Date:

Friday, May 17, 2013

  Actual Average (KLVN) Record (KLVN)
Temperature  
Mean Temperature 62 °F -  
Max Temperature 68 °F 73 °F 92 °F (1987)
Min Temperature 54 °F 48 °F 33 °F (1973)
Degree Days  
Heating Degree Days 4    
Growing Degree Days 12 (Base 50)    
Moisture  
Dew Point 51 °F    
Average Humidity 78    
Maximum Humidity 90    
Minimum Humidity 24    
Precipitation  
Precipitation 0.18 in - - ()
Sea Level Pressure  
Sea Level Pressure 29.95 in    
Wind  
Wind Speed 10 mph (East)    
Max Wind Speed 17 mph    
Max Gust Speed 23 mph    
Visibility 9 miles    
Events Rain , Thunderstorm    
Averages and records for this station are not official NWS values.
T = Trace of Precipitation, MM = Missing Value Source: NWS Daily Summary

Daily Weather History Graph

Daily Weather History Graph

Search for Another Location

Airport:

Trip Planner

Search our weather history database for the weather conditions in past years. The results will help you decide how hot, cold, wet, or windy it might be!

Date:

Astronomy

May. 17, 2013 Rise Set
Actual Time 5:42 AM CDT 8:35 PM CDT
Civil Twilight 5:08 AM CDT 9:09 PM CDT
Nautical Twilight 4:24 AM CDT 9:53 PM CDT
Astronomical Twilight 3:34 AM CDT 10:44 PM CDT
Moon 12:22 PM CDT (5/17) 1:22 AM CDT (5/17)
Length of Visible Light 16h 01m
Length of Day
14h 53m
Waxing Crescent, 45% of the Moon is Illuminated
May 17
Waxing Crescent
May 17
First Quarter
May 24
Full
May 31
Last Quarter
Jun 8
New

Hourly Weather History & Observations

Time (CDT) Temp. Dew Point Humidity Pressure Visibility Wind Dir Wind Speed Gust Speed Precip Events Conditions
12:14 AM 69.8 °F 31.3 °F 24% 29.86 in 10.0 mi East 13.8 mph 23.0 mph N/A   Mostly Cloudy
12:34 AM 69.1 °F 32.0 °F 25% 29.88 in 10.0 mi East 9.2 mph 17.3 mph N/A   Overcast
12:53 AM 68.9 °F 32.0 °F 25% 29.88 in 10.0 mi ESE 4.6 mph - N/A   Overcast
1:13 AM 68.4 °F 33.4 °F 27% 29.89 in 10.0 mi East 3.5 mph - N/A   Overcast
1:34 AM 66.2 °F 35.4 °F 32% 29.88 in 10.0 mi NE 8.1 mph - N/A   Overcast
1:53 AM 65.8 °F 36.7 °F 34% 29.88 in 10.0 mi NE 8.1 mph - N/A   Overcast
2:13 AM 66.2 °F 36.3 °F 33% 29.88 in 10.0 mi ENE 6.9 mph - N/A   Overcast
2:33 AM 64.9 °F 43.7 °F 46% 29.89 in 10.0 mi East 10.4 mph - N/A Rain Light Rain
2:53 AM 62.2 °F 47.3 °F 58% 29.90 in 10.0 mi East 6.9 mph - N/A Rain , Thunderstorm Rain
3:14 AM 59.9 °F 50.4 °F 71% 29.90 in 10.0 mi East 9.2 mph - 0.03 in Rain Rain
3:34 AM 59.5 °F 52.0 °F 76% 29.90 in 10.0 mi ESE 11.5 mph - 0.03 in Rain Light Rain
3:53 AM 60.3 °F 52.7 °F 76% 29.91 in 10.0 mi East 13.8 mph 18.4 mph 0.03 in Rain Light Rain
4:14 AM 60.1 °F 52.0 °F 75% 29.91 in 10.0 mi ESE 15.0 mph 21.9 mph N/A Rain Light Rain
4:34 AM 59.5 °F 50.7 °F 73% 29.92 in 10.0 mi ESE 13.8 mph 19.6 mph N/A   Light Drizzle
4:53 AM 59.2 °F 50.0 °F 72% 29.93 in 10.0 mi ESE 17.3 mph - N/A Rain Light Rain
5:14 AM 57.9 °F 50.0 °F 75% 29.94 in 10.0 mi ESE 13.8 mph 20.7 mph N/A Rain Light Rain
5:33 AM 56.8 °F 50.5 °F 79% 29.94 in 10.0 mi ESE 13.8 mph 18.4 mph 0.01 in Rain Rain
5:53 AM 56.3 °F 50.0 °F 79% 29.93 in 10.0 mi ESE 16.1 mph 23.0 mph 0.01 in   Light Drizzle
6:14 AM 55.6 °F 50.0 °F 81% 29.92 in 10.0 mi ESE 16.1 mph 21.9 mph N/A   Overcast
6:33 AM 55.4 °F 50.0 °F 82% 29.93 in 10.0 mi ESE 11.5 mph 21.9 mph N/A   Mostly Cloudy
7:13 AM 54.5 °F 49.6 °F 84% 29.93 in 10.0 mi ESE 16.1 mph 20.7 mph N/A   Mostly Cloudy
7:34 AM 54.5 °F 49.6 °F 84% 29.94 in 10.0 mi ESE 10.4 mph 17.3 mph N/A   Mostly Cloudy
7:54 AM 54.3 °F 50.0 °F 85% 29.95 in 10.0 mi East 8.1 mph - N/A   Mostly Cloudy
8:13 AM 54.5 °F 50.0 °F 85% 29.95 in 10.0 mi East 10.4 mph - N/A   Overcast
8:34 AM 54.5 °F 50.2 °F 85% 29.96 in 10.0 mi East 5.8 mph - N/A   Overcast
8:54 AM 54.5 °F 50.2 °F 85% 29.96 in 10.0 mi East 8.1 mph - N/A   Overcast
9:13 AM 54.5 °F 50.0 °F 85% 29.96 in 10.0 mi ESE 9.2 mph - N/A   Overcast
9:34 AM 54.5 °F 50.0 °F 85% 29.97 in 10.0 mi ESE 9.2 mph - N/A   Overcast
9:54 AM 55.2 °F 50.4 °F 84% 29.97 in 10.0 mi ESE 8.1 mph - N/A   Overcast
10:13 AM 55.2 °F 50.0 °F 83% 29.98 in 10.0 mi ESE 8.1 mph - N/A   Overcast
10:33 AM 55.6 °F 50.4 °F 83% 29.98 in 10.0 mi ESE 5.8 mph - N/A   Overcast
10:53 AM 55.9 °F 50.9 °F 83% 29.98 in 10.0 mi ESE 5.8 mph - N/A   Overcast
11:13 AM 55.9 °F 51.1 °F 84% 29.98 in 10.0 mi East 9.2 mph - N/A   Overcast
11:34 AM 56.3 °F 51.3 °F 83% 29.98 in 10.0 mi East 8.1 mph - N/A   Overcast
11:53 AM 56.3 °F 51.8 °F 85% 29.99 in 10.0 mi East 6.9 mph - N/A Rain Light Rain
12:14 PM 55.6 °F 52.0 °F 88% 29.99 in 4.0 mi ESE 8.1 mph - 0.03 in Rain Rain
12:34 PM 55.6 °F 52.3 °F 89% 29.98 in 5.0 mi East 8.1 mph - 0.07 in Rain Light Rain
12:53 PM 55.9 °F 52.7 °F 89% 29.98 in 10.0 mi East 10.4 mph - 0.07 in Rain Light Rain
1:14 PM 55.9 °F 52.7 °F 89% 29.99 in 7.0 mi East 11.5 mph - N/A   Overcast
1:33 PM 55.6 °F 52.3 °F 89% 29.98 in 7.0 mi East 8.1 mph - N/A   Overcast
2:13 PM 55.6 °F 52.5 °F 89% 29.99 in 7.0 mi East 9.2 mph - N/A Rain Light Rain
2:34 PM 55.4 °F 52.2 °F 89% 29.98 in 7.0 mi East 9.2 mph - 0.02 in Rain Rain
2:54 PM 55.9 °F 52.9 °F 89% 29.98 in 10.0 mi East 11.5 mph - 0.03 in Rain Light Rain
3:13 PM 56.1 °F 52.9 °F 89% 29.99 in 10.0 mi East 8.1 mph - 0.01 in Rain Light Rain
3:34 PM 56.3 °F 53.2 °F 89% 29.98 in 7.0 mi East 12.7 mph - 0.04 in Rain Light Rain
3:54 PM 57.0 °F 53.8 °F 89% 29.97 in 10.0 mi East 11.5 mph - 0.04 in   Light Drizzle
4:13 PM 57.6 °F 54.5 °F 90% 29.97 in 10.0 mi ENE 9.2 mph - N/A   Overcast
4:34 PM 58.1 °F 54.5 °F 88% 29.96 in 10.0 mi ENE 10.4 mph - N/A   Overcast
4:54 PM 58.1 °F 54.5 °F 88% 29.96 in 10.0 mi East 10.4 mph - N/A   Overcast
5:13 PM 58.3 °F 54.7 °F 88% 29.95 in 10.0 mi East 13.8 mph - N/A   Overcast
5:34 PM 58.5 °F 54.7 °F 87% 29.95 in 10.0 mi ESE 13.8 mph 17.3 mph N/A   Overcast
5:54 PM 58.5 °F 54.5 °F 87% 29.95 in 10.0 mi East 6.9 mph 16.1 mph N/A   Overcast
6:13 PM 58.5 °F 54.5 °F 87% 29.95 in 10.0 mi East 12.7 mph 17.3 mph N/A   Overcast
6:34 PM 58.6 °F 54.9 °F 87% 29.94 in 10.0 mi East 9.2 mph - N/A   Overcast
6:54 PM 58.6 °F 55.0 °F 88% 29.95 in 10.0 mi East 9.2 mph - N/A   Overcast
7:14 PM 59.0 °F 55.0 °F 87% 29.94 in 10.0 mi East 5.8 mph - N/A   Overcast
7:33 PM 59.0 °F 55.0 °F 87% 29.94 in 7.0 mi East 11.5 mph - N/A   Overcast
7:54 PM 59.0 °F 55.4 °F 88% 29.94 in 7.0 mi East 9.2 mph - N/A   Overcast
8:13 PM 59.0 °F 55.4 °F 88% 29.95 in 7.0 mi ESE 6.9 mph - N/A   Overcast
8:34 PM 59.0 °F 55.4 °F 88% 29.95 in 7.0 mi East 8.1 mph - N/A   Overcast
8:53 PM 59.0 °F 55.4 °F 88% 29.95 in 7.0 mi East 8.1 mph - N/A   Overcast
9:13 PM 59.0 °F 55.4 °F 88% 29.95 in 5.0 mi East 9.2 mph - N/A   Overcast
9:34 PM 59.0 °F 55.6 °F 88% 29.95 in 5.0 mi East 8.1 mph - N/A   Overcast
9:53 PM 58.8 °F 55.6 °F 89% 29.95 in 5.0 mi East 8.1 mph - N/A   Overcast
10:13 PM 59.0 °F 55.6 °F 88% 29.96 in 5.0 mi East 6.9 mph - N/A   Overcast
10:34 PM 59.0 °F 55.6 °F 88% 29.97 in 5.0 mi East 6.9 mph - N/A   Overcast
10:53 PM 59.0 °F 55.4 °F 88% 29.97 in 7.0 mi East 5.8 mph - N/A   Overcast
11:34 PM 59.0 °F 54.9 °F 86% 29.98 in 10.0 mi ESE 6.9 mph - N/A   Overcast
11:53 PM 59.0 °F 54.5 °F 85% 29.96 in 10.0 mi ESE 9.2 mph - N/A   Mostly Cloudy